Weather History for Montgomery, NY

Change the Weather History Date:

Sunday, December 9, 2012

  Actual Average (KPOU) Record (KPOU)
Temperature  
Mean Temperature 40 °F 33 °F  
Max Temperature 44 °F 43 °F 61 °F (1966)
Min Temperature 36 °F 24 °F 3 °F (1949)
Degree Days  
Heating Degree Days 25 32  
Month to date heating degree days 271  
Since 1 July heating degree days 1549  
Cooling Degree Days 0 0  
Month to date cooling degree days 0  
Year to date cooling degree days 672  
Moisture  
Dew Point 36 °F    
Average Humidity 87    
Maximum Humidity 100    
Minimum Humidity 58    
Precipitation  
Precipitation 0.07 in 0.12 in 2.00 in (1973)
Month to date precipitation 1.09  
Year to date precipitation 44.09  
Sea Level Pressure  
Sea Level Pressure 30.15 in    
Wind  
Wind Speed 4 mph (NE)    
Max Wind Speed 10 mph    
Max Gust Speed -    
Visibility 6 miles    
Events Fog , Rain    
T = Trace of Precipitation, MM = Missing Value Source: NWS Daily Summary

Daily Weather History Graph

Daily Weather History Graph

Search for Another Location

Airport:

Trip Planner

Search our weather history database for the weather conditions in past years. The results will help you decide how hot, cold, wet, or windy it might be!

Date:

Astronomy

Dec. 09, 2012 Rise Set
Actual Time 7:12 AM EST 4:27 PM EST
Civil Twilight 6:40 AM EST 4:58 PM EST
Nautical Twilight 6:06 AM EST 5:33 PM EST
Astronomical Twilight 5:32 AM EST 6:06 PM EST
Moon 2:39 AM EST (12/9) 1:34 PM EST (12/9)
Length of Visible Light 10h 17m
Length of Day
9h 14m
Waning Crescent, 19% of the Moon is Illuminated
Dec 9
Waning Crescent
Dec 13
New
Dec 20
First Quarter
Dec 28
Full
Jan 4
Last Quarter

Hourly Weather History & Observations

Time (EST) Temp. Windchill Dew Point Humidity Pressure Visibility Wind Dir Wind Speed Gust Speed Precip Events Conditions
12:06 AM 42.8 °F 41.1 °F 42.8 °F 100% 29.99 in 0.8 mi SSW 3.5 mph - N/A   Mostly Cloudy
12:20 AM 39.2 °F - 39.2 °F 100% 29.99 in 0.2 mi Calm Calm - N/A Fog Fog
12:54 AM 37.9 °F - 37.9 °F 100% 30.01 in 0.2 mi Calm Calm - N/A Fog Fog
1:54 AM 36.0 °F 33.3 °F 35.1 °F 97% 30.05 in 0.2 mi WSW 3.5 mph - N/A Fog Fog
2:54 AM 36.0 °F 33.3 °F 35.1 °F 97% 30.07 in 0.5 mi WSW 3.5 mph - 0.00 in Fog Fog
3:54 AM 39.0 °F 35.7 °F 39.0 °F 100% 30.08 in 0.2 mi NNE 4.6 mph - 0.00 in Fog Fog
4:54 AM 39.0 °F - 39.0 °F 100% 30.13 in 0.5 mi Calm Calm - 0.00 in Fog Fog
5:04 AM 39.2 °F - 39.2 °F 100% 30.13 in 1.2 mi Calm Calm - N/A   Overcast
5:10 AM 41.0 °F - 39.2 °F 93% 30.13 in 3.0 mi Calm Calm - N/A   Overcast
5:54 AM 41.0 °F - 39.9 °F 96% 30.15 in 2.5 mi Calm Calm - 0.00 in Rain Light Rain
6:05 AM 41.0 °F - 41.0 °F 100% 30.15 in 1.8 mi Calm Calm - N/A   Overcast
6:23 AM 42.8 °F 41.1 °F 39.2 °F 87% 30.17 in 2.0 mi NNE 3.5 mph - N/A   Overcast
6:34 AM 42.8 °F 38.6 °F 41.0 °F 93% 30.17 in 6.0 mi NE 6.9 mph - 0.00 in Rain Light Rain
6:42 AM 42.8 °F 41.1 °F 41.0 °F 93% 30.17 in 8.0 mi NE 3.5 mph - 0.00 in   Overcast
6:54 AM 43.0 °F - 41.0 °F 93% 30.19 in 7.0 mi Calm Calm - 0.00 in   Overcast
7:18 AM 42.8 °F 41.1 °F 39.2 °F 87% 30.20 in 5.0 mi NNE 3.5 mph - N/A   Overcast
7:54 AM 42.1 °F 36.6 °F 39.0 °F 89% 30.22 in 10.0 mi East 9.2 mph - N/A   Overcast
8:22 AM 39.2 °F 33.0 °F 35.6 °F 87% 30.23 in 10.0 mi NE 9.2 mph - N/A   Scattered Clouds
8:54 AM 39.9 °F 35.1 °F 34.0 °F 79% 30.25 in 10.0 mi NE 6.9 mph - N/A   Clear
9:54 AM 39.9 °F 34.5 °F 34.0 °F 79% 30.25 in 10.0 mi NE 8.1 mph - N/A   Clear
10:54 AM 41.0 °F 37.1 °F 33.1 °F 73% 30.26 in 10.0 mi NE 5.8 mph - N/A   Partly Cloudy
11:54 AM 43.0 °F 37.7 °F 30.0 °F 60% 30.24 in 10.0 mi NE 9.2 mph - N/A   Mostly Cloudy
12:54 PM 44.1 °F 38.6 °F 30.0 °F 58% 30.22 in 10.0 mi NE 10.4 mph - N/A   Mostly Cloudy
1:54 PM 44.1 °F 40.1 °F 30.0 °F 58% 30.21 in 10.0 mi NE 6.9 mph - N/A   Overcast
2:54 PM 43.0 °F 39.5 °F 30.0 °F 60% 30.20 in 10.0 mi ENE 5.8 mph - N/A   Overcast
3:54 PM 42.1 °F 40.2 °F 32.0 °F 67% 30.21 in 10.0 mi NE 3.5 mph - 0.00 in Rain Light Rain
4:54 PM 41.0 °F 38.0 °F 33.1 °F 73% 30.22 in 10.0 mi NNE 4.6 mph - 0.00 in   Overcast
5:54 PM 39.9 °F 35.8 °F 33.1 °F 77% 30.21 in 10.0 mi NE 5.8 mph - 0.00 in   Overcast
6:46 PM 39.2 °F 35.0 °F 33.8 °F 81% 30.19 in 10.0 mi NE 5.8 mph - 0.00 in Rain Light Rain
6:54 PM 39.0 °F 34.8 °F 34.0 °F 82% 30.20 in 10.0 mi NE 5.8 mph - 0.00 in Rain Light Rain
7:54 PM 37.9 °F 34.4 °F 35.1 °F 89% 30.18 in 6.0 mi NNE 4.6 mph - 0.01 in Rain Light Rain
8:20 PM 37.4 °F 32.1 °F 35.6 °F 93% 30.16 in 9.0 mi NNE 6.9 mph - 0.00 in Rain Light Rain
8:54 PM 37.9 °F 34.4 °F 35.1 °F 89% 30.14 in 4.0 mi NNE 4.6 mph - 0.00 in   Overcast
9:36 PM 37.4 °F 30.8 °F 35.6 °F 93% 30.11 in 4.0 mi NNE 9.2 mph - 0.00 in Rain Light Rain
9:54 PM 37.9 °F 31.5 °F 36.0 °F 93% 30.12 in 6.0 mi NNE 9.2 mph - 0.01 in Rain Light Rain
10:16 PM 37.4 °F 30.8 °F 35.6 °F 93% 30.10 in 7.0 mi NNE 9.2 mph - 0.00 in Rain Light Rain
10:54 PM 37.9 °F 32.7 °F 36.0 °F 93% 30.09 in 5.0 mi NNE 6.9 mph - 0.02 in Rain Light Rain
11:54 PM 39.0 °F 34.0 °F 37.0 °F 93% 30.04 in 3.0 mi NNE 6.9 mph - 0.03 in Rain Rain